,,Stat5,,Stat1,,Stat2,,Stat3,,Stat4,,Wind1,,Wind1,
time,status,PA1M_AVG,status,PR1M_SUM,status,RH1M_AVG,status,SR1M_AVG,status,TA1M_AVG,status,W1dAve1m,status,W1sAve1m,
2001-12-17, 00:00:00,VALID,919.576,VALID,0,VALID,98.2187,VALID,-0.0169808,VALID,19.161,VALID,13,VALID,0.556424,
2001-12-17, 00:01:00,VALID,919.576,VALID,0,VALID,98.2556,VALID,-0.0169808,VALID,19.164,VALID,13,VALID,0.535684,
2001-12-17, 00:02:00,VALID,919.573,VALID,0,VALID,98.2302,VALID,-0.0509425,VALID,19.1414,VALID,6,VALID,0.579963,
2001-12-17, 00:03:00,VALID,919.572,VALID,0,VALID,98.2582,VALID,-0.0169808,VALID,19.1451,VALID,8,VALID,0.637109,
2001-12-17, 00:04:00,VALID,919.546,VALID,0,VALID,98.4387,VALID,-0.0169808,VALID,19.1739,VALID,10,VALID,0.665441,
2001-12-17, 00:05:00,VALID,919.533,VALID,0,VALID,98.3344,VALID,0,VALID,19.164,VALID,9,VALID,0.553843,
2001-12-17, 00:06:00,VALID,919.518,VALID,0,VALID,98.2989,VALID,0.0169808,VALID,19.122,VALID,8,VALID,0.727364,
2001-12-17, 00:07:00,VALID,919.507,VALID,0,VALID,98.529,VALID,0.0169808,VALID,19.1797,VALID,6,VALID,0.602455,
2001-12-17, 00:08:00,VALID,919.497,VALID,0,VALID,98.5608,VALID,0.0679233,VALID,19.2286,VALID,6,VALID,0.529447,
2001-12-17, 00:09:00,VALID,919.483,VALID,0,VALID,98.5354,VALID,0.0509425,VALID,19.2189,VALID,5,VALID,0.441741,
2001-12-17, 00:10:00,VALID,919.465,VALID,0,VALID,98.5036,VALID,0.0169808,VALID,19.2219,VALID,1,VALID,0.32512,
2001-12-17, 00:11:00,VALID,919.464,VALID,0,VALID,98.5824,VALID,0.0169808,VALID,19.2515,VALID,1,VALID,0,
2001-12-17, 00:12:00,VALID,919.465,VALID,0,VALID,98.5913,VALID,0.0169808,VALID,19.2868,VALID,1,VALID,0.0144817,
2001-12-17, 00:13:00,VALID,919.45,VALID,0,VALID,98.5761,VALID,0,VALID,19.2964,VALID,1,VALID,0.120593,
2001-12-17, 00:14:01,VALID,919.45,VALID,0,VALID,98.6028,VALID,0,VALID,19.332,VALID,1,VALID,0,
2001-12-17, 00:15:00,VALID,919.433,VALID,0,VALID,98.5989,VALID,0.0169808,VALID,19.3543,VALID,1,VALID,0,
2001-12-17, 00:16:00,VALID,919.436,VALID,0,VALID,98.3662,VALID,0.0169808,VALID,19.2925,VALID,282,VALID,0,
2001-12-17, 00:17:00,VALID,919.428,VALID,0,VALID,98.5137,VALID,0.0169808,VALID,19.3449,VALID,270,VALID,0,
2001-12-17, 00:18:00,VALID,919.424,VALID,0,VALID,98.6841,VALID,0.0169808,VALID,19.4515,VALID,270,VALID,0,
2001-12-17, 00:19:01,VALID,919.403,VALID,0,VALID,98.688,VALID,0.0509425,VALID,19.5094,VALID,270,VALID,0,
2001-12-17, 00:20:00,VALID,919.392,VALID,0,VALID,98.674,VALID,0.0169808,VALID,19.5096,VALID,270,VALID,0,
2001-12-17, 00:21:00,VALID,919.376,VALID,0,VALID,98.6956,VALID,0,VALID,19.5389,VALID,270,VALID,0,
2001-12-17, 00:22:01,VALID,919.358,VALID,0,VALID,98.6193,VALID,0,VALID,19.5295,VALID,270,VALID,0,
2001-12-17, 00:23:00,VALID,919.361,VALID,0,VALID,98.6091,VALID,0,VALID,19.4902,VALID,269,VALID,0,
2001-12-17, 00:24:00,VALID,919.334,VALID,0,VALID,98.7121,VALID,0.0169808,VALID,19.5616,VALID,262,VALID,0,
2001-12-17, 00:25:00,VALID,919.317,VALID,0,VALID,98.777,VALID,0,VALID,19.6132,VALID,262,VALID,0,
2001-12-17, 00:26:00,VALID,919.296,VALID,0,VALID,98.7973,VALID,0,VALID,19.6361,VALID,262,VALID,0,
2001-12-17, 00:27:01,VALID,919.268,VALID,0,VALID,98.7973,VALID,0,VALID,19.6716,VALID,262,VALID,0,
2001-12-17, 00:28:00,VALID,919.252,VALID,0,VALID,98.8011,VALID,0,VALID,19.6615,VALID,262,VALID,0,
2001-12-17, 00:29:00,VALID,919.249,VALID,0,VALID,98.7973,VALID,-0.0169808,VALID,19.6485,VALID,262,VALID,0,
2001-12-17, 00:30:01,VALID,919.251,VALID,0,VALID,98.7897,VALID,0,VALID,19.6585,VALID,262,VALID,0,
2001-12-17, 00:31:00,VALID,919.224,VALID,0,VALID,98.7579,VALID,0,VALID,19.6329,VALID,262,VALID,0,
2001-12-17, 00:32:00,VALID,919.216,VALID,0,VALID,98.6256,VALID,0,VALID,19.571,VALID,262,VALID,0,
2001-12-17, 00:33:00,VALID,919.199,VALID,0,VALID,98.5265,VALID,0,VALID,19.4974,VALID,262,VALID,0,
2001-12-17, 00:34:00,VALID,919.182,VALID,0,VALID,98.4603,VALID,0,VALID,19.3996,VALID,262,VALID,0,
2001-12-17, 00:35:01,VALID,919.173,VALID,0,VALID,98.4311,VALID,0.0169808,VALID,19.3357,VALID,262,VALID,0,
2001-12-17, 00:36:00,VALID,919.164,VALID,0,VALID,98.4756,VALID,0,VALID,19.2865,VALID,262,VALID,0,
2001-12-17, 00:37:00,VALID,919.143,VALID,0,VALID,98.5494,VALID,-0.0169808,VALID,19.2967,VALID,262,VALID,0,
2001-12-17, 00:38:01,VALID,919.147,VALID,0,VALID,98.5557,VALID,0,VALID,19.2907,VALID,262,VALID,0,
2001-12-17, 00:39:00,VALID,919.138,VALID,0,VALID,98.4858,VALID,0.0169808,VALID,19.2641,VALID,262,VALID,0,
2001-12-17, 00:40:00,VALID,919.12,VALID,0,VALID,98.4476,VALID,0.0169808,VALID,19.2353,VALID,262,VALID,0,
2001-12-17, 00:41:00,VALID,919.098,VALID,0,VALID,98.44,VALID,0,VALID,19.209,VALID,262,VALID,0,
2001-12-17, 00:42:00,VALID,919.069,VALID,0,VALID,98.4769,VALID,0.0169808,VALID,19.1933,VALID,262,VALID,0,
2001-12-17, 00:43:01,VALID,919.061,VALID,0,VALID,98.5544,VALID,0.0339617,VALID,19.2189,VALID,262,VALID,0,
2001-12-17, 00:44:00,VALID,919.047,VALID,0,VALID,98.6803,VALID,0,VALID,19.2999,VALID,262,VALID,0,
2001-12-17, 00:45:00,VALID,919.033,VALID,0,VALID,98.5074,VALID,0.0169808,VALID,19.2318,VALID,266,VALID,0,
2001-12-17, 00:46:01,VALID,919.038,VALID,0,VALID,98.426,VALID,0.0339617,VALID,19.1543,VALID,302,VALID,0,
2001-12-17, 00:47:00,VALID,919.018,VALID,0,VALID,98.3103,VALID,0,VALID,19.0572,VALID,302,VALID,0,
2001-12-17, 00:48:00,VALID,919.006,VALID,0,VALID,98.2658,VALID,0.0509425,VALID,19.0032,VALID,304,VALID,0,
2001-12-17, 00:49:00,VALID,918.999,VALID,0,VALID,98.2582,VALID,0.0169808,VALID,18.9412,VALID,349,VALID,0,
2001-12-17, 00:50:00,VALID,918.989,VALID,0,VALID,98.2938,VALID,0.0169808,VALID,18.893,VALID,358,VALID,0,
2001-12-17, 00:51:01,VALID,918.976,VALID,0,VALID,98.5214,VALID,0,VALID,18.9483,VALID,5,VALID,0,
2001-12-17, 00:52:00,VALID,918.978,VALID,0,VALID,98.5621,VALID,-0.0339617,VALID,18.9486,VALID,14,VALID,0,
2001-12-17, 00:53:00,VALID,918.976,VALID,0,VALID,98.5366,VALID,-0.0169808,VALID,18.9523,VALID,24,VALID,0,
2001-12-17, 00:54:01,VALID,918.971,VALID,0,VALID,98.5722,VALID,-0.0169808,VALID,18.9195,VALID,29,VALID,0,
2001-12-17, 00:55:00,VALID,918.958,VALID,0,VALID,98.5684,VALID,-0.0509425,VALID,18.9262,VALID,33,VALID,0,
2001-12-17, 00:56:00,VALID,918.95,VALID,0,VALID,98.5125,VALID,-0.0339617,VALID,18.8678,VALID,45,VALID,0,
2001-12-17, 00:57:00,VALID,918.945,VALID,0,VALID,98.3815,VALID,-0.0169808,VALID,18.7903,VALID,44,VALID,0,
2001-12-17, 00:58:00,VALID,918.937,VALID,0,VALID,98.5341,VALID,-0.0339617,VALID,18.7908,VALID,49,VALID,0,
2001-12-17, 00:59:01,VALID,918.935,VALID,0,VALID,98.7452,VALID,0,VALID,18.8286,VALID,49,VALID,0,
2001-12-17, 01:00:00,VALID,918.92,VALID,0,VALID,98.7846,VALID,-0.0169808,VALID,18.8941,VALID,49,VALID,0,
2001-12-17, 01:01:00,VALID,918.911,VALID,0,VALID,98.838,VALID,-0.0509425,VALID,18.9424,VALID,49,VALID,0,
2001-12-17, 01:02:01,VALID,918.906,VALID,0,VALID,98.8062,VALID,-0.0169808,VALID,18.9617,VALID,49,VALID,0,
2001-12-17, 01:03:00,VALID,918.903,VALID,0,VALID,98.6587,VALID,-0.0169808,VALID,18.9324,VALID,48,VALID,0,
2001-12-17, 01:04:00,VALID,918.901,VALID,0,VALID,98.618,VALID,-0.0339617,VALID,18.8909,VALID,32,VALID,0.00925164,
2001-12-17, 01:05:00,VALID,918.911,VALID,0,VALID,98.632,VALID,-0.0169808,VALID,18.8745,VALID,7,VALID,0.466546,
2001-12-17, 01:06:00,VALID,918.921,VALID,0,VALID,98.5608,VALID,0.101885,VALID,18.8572,VALID,9,VALID,0.297656,
2001-12-17, 01:07:01,VALID,918.929,VALID,0,VALID,98.5417,VALID,0.101885,VALID,18.8314,VALID,9,VALID,0.200802,
2001-12-17, 01:08:00,VALID,918.937,VALID,0,VALID,98.5697,VALID,0.0849042,VALID,18.8249,VALID,9,VALID,0,
2001-12-17, 01:09:00,VALID,918.934,VALID,0,VALID,98.6218,VALID,0.101885,VALID,18.8443,VALID,9,VALID,0,
2001-12-17, 01:10:01,VALID,918.931,VALID,0,VALID,98.6218,VALID,0.101885,VALID,18.8701,VALID,9,VALID,0.00102796,
2001-12-17, 01:11:00,VALID,918.909,VALID,0,VALID,98.6765,VALID,0.118866,VALID,18.8957,VALID,9,VALID,0,
2001-12-17, 01:12:00,VALID,918.886,VALID,0,VALID,98.5583,VALID,0.0849042,VALID,18.8858,VALID,129,VALID,0.157484,
2001-12-17, 01:13:00,VALID,918.86,VALID,0,VALID,98.5519,VALID,0.0849042,VALID,18.8535,VALID,138,VALID,0.329127,
2001-12-17, 01:14:00,VALID,918.826,VALID,0,VALID,98.5811,VALID,0.0849042,VALID,18.8475,VALID,138,VALID,0.208594,
2001-12-17, 01:15:01,VALID,918.794,VALID,0,VALID,98.5939,VALID,0.118866,VALID,18.8443,VALID,138,VALID,0.0941723,
2001-12-17, 01:16:00,VALID,918.787,VALID,0,VALID,98.6918,VALID,0.0849042,VALID,18.854,VALID,138,VALID,0.174609,
2001-12-17, 01:17:00,VALID,918.781,VALID,0,VALID,98.7287,VALID,0.0679233,VALID,18.8768,VALID,138,VALID,0.0116186,
2001-12-17, 01:18:01,VALID,918.781,VALID,0,VALID,98.7465,VALID,0.0509425,VALID,18.8962,VALID,138,VALID,0,
2001-12-17, 01:19:00,VALID,918.784,VALID,0,VALID,98.7643,VALID,0.0849042,VALID,18.9153,VALID,140,VALID,0,
2001-12-17, 01:20:00,VALID,918.79,VALID,0,VALID,98.7503,VALID,0.0509425,VALID,18.9218,VALID,141,VALID,0,
2001-12-17, 01:21:00,VALID,918.788,VALID,0,VALID,98.7566,VALID,-0.0679233,VALID,18.9366,VALID,141,VALID,0,
2001-12-17, 01:22:00,VALID,918.783,VALID,0,VALID,98.8558,VALID,-0.0169808,VALID,18.962,VALID,141,VALID,0,
2001-12-17, 01:23:01,VALID,918.78,VALID,0,VALID,98.8749,VALID,-0.0339617,VALID,18.991,VALID,141,VALID,0,
2001-12-17, 01:24:00,VALID,918.773,VALID,0,VALID,98.8609,VALID,0,VALID,19.0104,VALID,141,VALID,0.305273,
2001-12-17, 01:25:00,VALID,918.772,VALID,0,VALID,98.8126,VALID,-0.0169808,VALID,19.004,VALID,142,VALID,0.330128,
2001-12-17, 01:26:01,VALID,918.777,VALID,0,VALID,98.6422,VALID,-0.0169808,VALID,18.9523,VALID,142,VALID,0,
2001-12-17, 01:27:00,VALID,918.77,VALID,0,VALID,98.6002,VALID,-0.0509425,VALID,18.9008,VALID,136,VALID,0,
2001-12-17, 01:28:00,VALID,918.77,VALID,0,VALID,98.6078,VALID,-0.0509425,VALID,18.875,VALID,124,VALID,0,
2001-12-17, 01:29:00,VALID,918.761,VALID,0,VALID,98.66,VALID,-0.0509425,VALID,18.8425,VALID,137,VALID,0.675681,
2001-12-17, 01:30:00,VALID,918.742,VALID,0,VALID,98.763,VALID,-0.0339617,VALID,18.8589,VALID,143,VALID,0.851563,
2001-12-17, 01:31:01,VALID,918.73,VALID,0,VALID,98.7528,VALID,0,VALID,18.8748,VALID,145,VALID,0.737753,
2001-12-17, 01:32:00,VALID,918.706,VALID,0,VALID,98.7236,VALID,-0.0169808,VALID,18.872,VALID,143,VALID,0.69082,
2001-12-17, 01:33:00,VALID,918.712,VALID,0,VALID,98.6638,VALID,-0.0339617,VALID,18.8392,VALID,144,VALID,0.555689,
2001-12-17, 01:34:01,VALID,918.69,VALID,0,VALID,98.6803,VALID,-0.0169808,VALID,18.8035,VALID,136,VALID,0.605469,
2001-12-17, 01:35:01,VALID,918.675,VALID,0,VALID,98.7706,VALID,0,VALID,18.797,VALID,135,VALID,0.588942,
2001-12-17, 01:36:00,VALID,918.663,VALID,0,VALID,98.7477,VALID,-0.0169808,VALID,18.7938,VALID,127,VALID,0.235814,
2001-12-17, 01:37:01,VALID,918.655,VALID,0,VALID,98.5939,VALID,0,VALID,18.7458,VALID,116,VALID,0.438502,
2001-12-17, 01:38:00,VALID,918.654,VALID,0,VALID,98.6193,VALID,-0.0339617,VALID,18.6907,VALID,120,VALID,0.469727,
2001-12-17, 01:39:01,VALID,918.646,VALID,0,VALID,98.6193,VALID,0,VALID,18.6521,VALID,127,VALID,0.44489,
2001-12-17, 01:40:01,VALID,918.65,VALID,0,VALID,98.6867,VALID,-0.0169808,VALID,18.6268,VALID,152,VALID,0.734375,
2001-12-17, 01:41:01,VALID,918.643,VALID,0,VALID,98.8456,VALID,-0.0509425,VALID,18.6399,VALID,150,VALID,0.900441,
2001-12-17, 01:42:01,VALID,918.63,VALID,0,VALID,98.9575,VALID,-0.0509425,VALID,18.6944,VALID,150,VALID,0.718133,
2001-12-17, 01:43:01,VALID,918.618,VALID,0,VALID,98.9588,VALID,-0.0169808,VALID,18.7128,VALID,155,VALID,0.513421,
2001-12-17, 01:44:00,VALID,918.608,VALID,0,VALID,98.9677,VALID,0,VALID,18.7364,VALID,164,VALID,0.376645,
2001-12-17, 01:45:01,VALID,918.603,VALID,0,VALID,98.9614,VALID,-0.101885,VALID,18.7329,VALID,171,VALID,0.584535,
2001-12-17, 01:46:01,VALID,918.6,VALID,0,VALID,98.9537,VALID,-0.0169808,VALID,18.7297,VALID,169,VALID,0.731836,
2001-12-17, 01:47:01,VALID,918.597,VALID,0,VALID,98.9525,VALID,-0.0169808,VALID,18.72,VALID,167,VALID,0.796664,
2001-12-17, 01:48:00,VALID,918.604,VALID,0,VALID,98.9982,VALID,-0.0169808,VALID,18.746,VALID,162,VALID,0.49082,
2001-12-17, 01:49:01,VALID,918.615,VALID,0,VALID,99.0338,VALID,0,VALID,18.7652,VALID,130,VALID,0.343149,
2001-12-17, 01:50:01,VALID,918.637,VALID,0,VALID,98.9957,VALID,-0.0339617,VALID,18.7488,VALID,124,VALID,0.186266,
2001-12-17, 01:51:01,VALID,918.649,VALID,0,VALID,99.0275,VALID,-0.0169808,VALID,18.762,VALID,126,VALID,0.15024,
2001-12-17, 01:52:01,VALID,918.683,VALID,0,VALID,99.0466,VALID,-0.0339617,VALID,18.7781,VALID,125,VALID,0.0559211,
2001-12-17, 01:53:01,VALID,918.707,VALID,0,VALID,99.0237,VALID,-0.0509425,VALID,18.7682,VALID,124,VALID,0,
2001-12-17, 01:54:01,VALID,918.719,VALID,0,VALID,98.9868,VALID,-0.0169808,VALID,18.7262,VALID,120,VALID,0,
2001-12-17, 01:55:01,VALID,918.73,VALID,0,VALID,98.9372,VALID,-0.0169808,VALID,18.678,VALID,89,VALID,0.109797,
2001-12-17, 01:56:01,VALID,918.725,VALID,0,VALID,98.9957,VALID,-0.0169808,VALID,18.6623,VALID,62,VALID,0.453125,
2001-12-17, 01:57:01,VALID,918.724,VALID,0,VALID,99.0389,VALID,-0.0169808,VALID,18.6715,VALID,63,VALID,0.308894,
2001-12-17, 01:58:01,VALID,918.727,VALID,0,VALID,99.0872,VALID,-0.0339617,VALID,18.6907,VALID,76,VALID,0.375206,
2001-12-17, 01:59:01,VALID,918.73,VALID,0,VALID,99.1318,VALID,-0.0169808,VALID,18.7167,VALID,88,VALID,0.435296,
2001-12-17, 02:00:01,VALID,918.723,VALID,0,VALID,99.1394,VALID,-0.101885,VALID,18.7557,VALID,89,VALID,0.579975,
2001-12-17, 02:01:01,VALID,918.704,VALID,0,VALID,99.1559,VALID,-0.0169808,VALID,18.7652,VALID,91,VALID,0.894431,
2001-12-17, 02:02:01,VALID,918.694,VALID,0,VALID,99.1381,VALID,0,VALID,18.785,VALID,97,VALID,0.776563,
2001-12-17, 02:03:01,VALID,918.679,VALID,0,VALID,99.0847,VALID,-0.0169808,VALID,18.7557,VALID,101,VALID,0.510769,
2001-12-17, 02:04:01,VALID,918.637,VALID,0,VALID,99.1496,VALID,0,VALID,18.7523,VALID,105,VALID,0.505859,
2001-12-17, 02:05:01,VALID,918.599,VALID,0,VALID,99.1585,VALID,-0.0339617,VALID,18.762,VALID,109,VALID,0.630208,
2001-12-17, 02:06:01,VALID,918.555,VALID,0,VALID,99.2169,VALID,-0.0509425,VALID,18.83,VALID,108,VALID,0.722245,
2001-12-17, 02:07:01,VALID,918.524,VALID,0,VALID,99.1813,VALID,-0.0339617,VALID,18.833,VALID,87,VALID,0.44391,
2001-12-17, 02:08:00,VALID,918.495,VALID,0,VALID,99.1038,VALID,-0.0509425,VALID,18.7557,VALID,70,VALID,0.311266,
2001-12-17, 02:09:00,VALID,918.48,VALID,0,VALID,99.0707,VALID,-0.0169808,VALID,18.7108,VALID,76,VALID,0.345353,
2001-12-17, 02:10:00,VALID,918.466,VALID,0,VALID,99.0542,VALID,-0.0679233,VALID,18.6653,VALID,81,VALID,0.298633,
2001-12-17, 02:11:00,VALID,918.452,VALID,0,VALID,98.9499,VALID,-0.0169808,VALID,18.5686,VALID,80,VALID,0.484375,
2001-12-17, 02:12:00,VALID,918.439,VALID,0,VALID,99.0262,VALID,-0.0169808,VALID,18.523,VALID,81,VALID,0.466602,
2001-12-17, 02:13:00,VALID,918.435,VALID,0,VALID,99.1254,VALID,-0.0509425,VALID,18.5654,VALID,81,VALID,0.457332,
2001-12-17, 02:14:00,VALID,918.444,VALID,0,VALID,99.1686,VALID,-0.0339617,VALID,18.5972,VALID,82,VALID,0.585115,
2001-12-17, 02:15:00,VALID,918.433,VALID,0,VALID,99.1508,VALID,-0.0339617,VALID,18.5972,VALID,85,VALID,0.520433,
2001-12-17, 02:16:00,VALID,918.427,VALID,0,VALID,99.1457,VALID,-0.0169808,VALID,18.5942,VALID,79,VALID,0.714638,
2001-12-17, 02:17:00,VALID,918.417,VALID,0,VALID,99.1572,VALID,0,VALID,18.5938,VALID,75,VALID,0.563301,
2001-12-17, 02:18:00,VALID,918.408,VALID,0,VALID,99.1826,VALID,-0.0169808,VALID,18.6069,VALID,87,VALID,0.616992,
2001-12-17, 02:19:00,VALID,918.394,VALID,0,VALID,99.2347,VALID,-0.0169808,VALID,18.6487,VALID,98,VALID,0.751267,
2001-12-17, 02:20:00,VALID,918.382,VALID,0,VALID,99.236,VALID,-0.0509425,VALID,18.681,VALID,99,VALID,0.83457,
2001-12-17, 02:21:00,VALID,918.365,VALID,0,VALID,99.2347,VALID,-0.0169808,VALID,18.6842,VALID,103,VALID,0.97476,
2001-12-17, 02:22:00,VALID,918.355,VALID,0,VALID,99.2233,VALID,-0.0169808,VALID,18.7008,VALID,109,VALID,1.06785,
2001-12-17, 02:23:00,VALID,918.324,VALID,0,VALID,99.2258,VALID,0,VALID,18.6909,VALID,117,VALID,0.832131,
2001-12-17, 02:24:00,VALID,918.325,VALID,0,VALID,99.1979,VALID,-0.0339617,VALID,18.6852,VALID,126,VALID,0.500617,
2001-12-17, 02:25:00,VALID,918.321,VALID,0,VALID,99.1839,VALID,0,VALID,18.6484,VALID,122,VALID,0.465345,
2001-12-17, 02:26:00,VALID,918.319,VALID,0,VALID,99.1979,VALID,0.0169808,VALID,18.6293,VALID,125,VALID,0.606445,
2001-12-17, 02:27:00,VALID,918.316,VALID,0,VALID,99.2297,VALID,-0.0169808,VALID,18.6558,VALID,121,VALID,0.379856,
2001-12-17, 02:28:00,VALID,918.304,VALID,0,VALID,99.2818,VALID,-0.0339617,VALID,18.681,VALID,117,VALID,0.483008,
2001-12-17, 02:29:00,VALID,918.301,VALID,0,VALID,99.2793,VALID,0.0169808,VALID,18.72,VALID,104,VALID,0.473558,
2001-12-17, 02:30:00,VALID,918.294,VALID,0,VALID,99.3149,VALID,0,VALID,18.7585,VALID,104,VALID,0.676809,
2001-12-17, 02:31:00,VALID,918.279,VALID,0,VALID,99.3352,VALID,0,VALID,18.8231,VALID,101,VALID,0.623598,
2001-12-17, 02:32:00,VALID,918.275,VALID,0,VALID,99.3314,VALID,0,VALID,18.8683,VALID,82,VALID,0.340666,
2001-12-17, 02:33:00,VALID,918.282,VALID,0,VALID,99.3276,VALID,-0.0339617,VALID,18.8748,VALID,89,VALID,0.308293,
2001-12-17, 02:34:00,VALID,918.267,VALID,0,VALID,99.3377,VALID,0,VALID,18.9142,VALID,112,VALID,0.688672,
2001-12-17, 02:35:00,VALID,918.249,VALID,0,VALID,99.3263,VALID,-0.0169808,VALID,18.9396,VALID,94,VALID,0.558488,
2001-12-17, 02:36:00,VALID,918.223,VALID,0,VALID,99.3314,VALID,0,VALID,18.9555,VALID,95,VALID,0.422852,
2001-12-17, 02:37:00,VALID,918.197,VALID,0,VALID,99.3149,VALID,-0.0169808,VALID,18.9622,VALID,112,VALID,0.441306,
2001-12-17, 02:38:00,VALID,918.174,VALID,0,VALID,99.306,VALID,0,VALID,18.9555,VALID,142,VALID,0.572163,
2001-12-17, 02:39:00,VALID,918.138,VALID,0,VALID,99.3161,VALID,0,VALID,18.9652,VALID,153,VALID,0.731771,
2001-12-17, 02:40:00,VALID,918.116,VALID,0,VALID,99.3225,VALID,0,VALID,18.9915,VALID,154,VALID,0.712171,
2001-12-17, 02:41:00,VALID,918.079,VALID,0,VALID,99.3212,VALID,0.0169808,VALID,19.0032,VALID,156,VALID,0.54347,
2001-12-17, 02:42:00,VALID,918.072,VALID,0,VALID,99.3225,VALID,-0.0339617,VALID,19.0328,VALID,170,VALID,0.686523,
2001-12-17, 02:43:00,VALID,918.054,VALID,0,VALID,99.3021,VALID,-0.0169808,VALID,19.0653,VALID,162,VALID,0.517103,
2001-12-17, 02:44:00,VALID,918.023,VALID,0,VALID,99.3009,VALID,0,VALID,19.0524,VALID,165,VALID,0.373047,
2001-12-17, 02:45:00,VALID,918.009,VALID,0,VALID,99.2945,VALID,0,VALID,19.033,VALID,172,VALID,0.311498,
2001-12-17, 02:46:00,VALID,917.996,VALID,0,VALID,99.2742,VALID,-0.0169808,VALID,19.0199,VALID,169,VALID,0.176398,
2001-12-17, 02:47:00,VALID,918,VALID,0,VALID,99.2754,VALID,0,VALID,19.0072,VALID,162,VALID,0.205529,
2001-12-17, 02:48:00,VALID,918.019,VALID,0,VALID,99.2742,VALID,0,VALID,19.004,VALID,152,VALID,0.0331003,
2001-12-17, 02:49:00,VALID,918.03,VALID,0,VALID,99.2805,VALID,-0.0339617,VALID,19.0044,VALID,147,VALID,0.00120192,
2001-12-17, 02:50:00,VALID,918.058,VALID,0,VALID,99.2615,VALID,-0.0509425,VALID,18.9816,VALID,140,VALID,0,
2001-12-17, 02:51:00,VALID,918.072,VALID,0,VALID,99.2538,VALID,0,VALID,18.9525,VALID,140,VALID,0,
2001-12-17, 02:52:00,VALID,918.102,VALID,0,VALID,99.264,VALID,0,VALID,18.9424,VALID,132,VALID,0,
2001-12-17, 02:53:00,VALID,918.116,VALID,0,VALID,99.2882,VALID,0,VALID,18.962,VALID,109,VALID,0,
2001-12-17, 02:54:00,VALID,918.127,VALID,0,VALID,99.2831,VALID,-0.0339617,VALID,18.9657,VALID,93,VALID,0,
2001-12-17, 02:55:00,VALID,918.13,VALID,0,VALID,99.292,VALID,0,VALID,18.9495,VALID,91,VALID,0,
2001-12-17, 02:56:00,VALID,918.139,VALID,0,VALID,99.2856,VALID,0,VALID,18.9491,VALID,87,VALID,0,
2001-12-17, 02:57:00,VALID,918.108,VALID,0,VALID,99.2869,VALID,0.0169808,VALID,18.9294,VALID,87,VALID,0,
2001-12-17, 02:58:00,VALID,918.093,VALID,0,VALID,99.2945,VALID,0,VALID,18.9133,VALID,92,VALID,0,
2001-12-17, 02:59:00,VALID,918.079,VALID,0,VALID,99.2894,VALID,0,VALID,18.8969,VALID,100,VALID,0,
2001-12-17, 03:00:00,VALID,918.07,VALID,0,VALID,99.2907,VALID,0,VALID,18.8842,VALID,115,VALID,0.339844,
2001-12-17, 03:01:00,VALID,918.054,VALID,0,VALID,99.3047,VALID,0.0169808,VALID,18.9029,VALID,127,VALID,0.544872,
2001-12-17, 03:02:00,VALID,918.049,VALID,0,VALID,99.3123,VALID,0,VALID,18.9168,VALID,121,VALID,0.69449,
2001-12-17, 03:03:00,VALID,918.04,VALID,0,VALID,99.2907,VALID,-0.0169808,VALID,18.8907,VALID,127,VALID,0.465144,
2001-12-17, 03:04:00,VALID,918.031,VALID,0,VALID,99.3021,VALID,0,VALID,18.8874,VALID,117,VALID,0.642681,
2001-12-17, 03:05:00,VALID,918.02,VALID,0,VALID,99.3352,VALID,0,VALID,18.9034,VALID,123,VALID,0.646434,
2001-12-17, 03:06:00,VALID,918.007,VALID,0,VALID,99.3454,VALID,0,VALID,18.9364,VALID,118,VALID,0.759961,
2001-12-17, 03:07:00,VALID,918.013,VALID,0,VALID,99.3352,VALID,-0.0169808,VALID,18.9523,VALID,115,VALID,0.565245,
2001-12-17, 03:08:00,VALID,918.013,VALID,0,VALID,99.3327,VALID,0,VALID,18.9424,VALID,117,VALID,0.513672,
2001-12-17, 03:09:00,VALID,918.038,VALID,0,VALID,99.3479,VALID,-0.0169808,VALID,18.9654,VALID,104,VALID,0.676683,
2001-12-17, 03:10:00,VALID,918.059,VALID,0,VALID,99.3454,VALID,0,VALID,18.965,VALID,86,VALID,0.594572,
2001-12-17, 03:11:00,VALID,918.059,VALID,0,VALID,99.3339,VALID,0,VALID,18.9781,VALID,74,VALID,0.613782,
2001-12-17, 03:12:00,VALID,918.065,VALID,0,VALID,99.3314,VALID,0,VALID,18.9687,VALID,82,VALID,0.527344,
2001-12-17, 03:13:00,VALID,918.074,VALID,0,VALID,99.3288,VALID,-0.0339617,VALID,18.9453,VALID,80,VALID,0.783854,
2001-12-17, 03:14:00,VALID,918.073,VALID,0,VALID,99.3187,VALID,-0.0169808,VALID,18.9419,VALID,64,VALID,0.89707,
2001-12-17, 03:15:00,VALID,918.087,VALID,0,VALID,99.3098,VALID,0,VALID,18.9101,VALID,73,VALID,1.05638,
2001-12-17, 03:16:00,VALID,918.097,VALID,0,VALID,99.3034,VALID,0,VALID,18.8974,VALID,84,VALID,0.799414,
2001-12-17, 03:17:00,VALID,918.103,VALID,0,VALID,99.3238,VALID,0,VALID,18.8907,VALID,98,VALID,0.843349,
2001-12-17, 03:18:00,VALID,918.099,VALID,0,VALID,99.3123,VALID,-0.0169808,VALID,18.8812,VALID,100,VALID,0.799753,
2001-12-17, 03:19:00,VALID,918.103,VALID,0,VALID,99.3149,VALID,-0.0169808,VALID,18.8748,VALID,102,VALID,1.07893,
2001-12-17, 03:20:00,VALID,918.107,VALID,0,VALID,99.3365,VALID,0,VALID,18.8745,VALID,101,VALID,1.1875,
2001-12-17, 03:21:00,VALID,918.124,VALID,0,VALID,99.3365,VALID,-0.0509425,VALID,18.8879,VALID,114,VALID,0.536458,
2001-12-17, 03:22:00,VALID,918.142,VALID,0,VALID,99.3428,VALID,0,VALID,18.9041,VALID,108,VALID,0.496875,
2001-12-17, 03:23:00,VALID,918.139,VALID,0,VALID,99.3403,VALID,-0.0339617,VALID,18.8939,VALID,117,VALID,0.425676,
2001-12-17, 03:24:00,VALID,918.141,VALID,0,VALID,99.3403,VALID,0,VALID,18.8971,VALID,78,VALID,0.2375,
2001-12-17, 03:25:00,VALID,918.131,VALID,0,VALID,99.3441,VALID,-0.0169808,VALID,18.8775,VALID,78,VALID,0.0917468,
2001-12-17, 03:26:00,VALID,918.127,VALID,0,VALID,99.3377,VALID,-0.0339617,VALID,18.8748,VALID,83,VALID,0,
2001-12-17, 03:27:00,VALID,918.11,VALID,0,VALID,99.3441,VALID,-0.0169808,VALID,18.878,VALID,91,VALID,0,
2001-12-17, 03:28:00,VALID,918.073,VALID,0,VALID,99.3492,VALID,-0.0169808,VALID,18.8845,VALID,94,VALID,0.226357,
2001-12-17, 03:29:00,VALID,918.06,VALID,0,VALID,99.3657,VALID,0,VALID,18.9264,VALID,99,VALID,0.613982,
2001-12-17, 03:30:00,VALID,918.045,VALID,0,VALID,99.3644,VALID,-0.0169808,VALID,18.9396,VALID,72,VALID,0.249805,
2001-12-17, 03:31:00,VALID,918.032,VALID,0,VALID,99.3644,VALID,0,VALID,18.9331,VALID,81,VALID,0.15625,
2001-12-17, 03:32:00,VALID,918.017,VALID,0,VALID,99.3683,VALID,0,VALID,18.9329,VALID,81,VALID,0,
2001-12-17, 03:33:00,VALID,918.001,VALID,0,VALID,99.3594,VALID,-0.0339617,VALID,18.9324,VALID,81,VALID,0,
2001-12-17, 03:34:00,VALID,917.98,VALID,0,VALID,99.3581,VALID,-0.0339617,VALID,18.9493,VALID,79,VALID,0.000822368,
2001-12-17, 03:35:00,VALID,917.972,VALID,0,VALID,99.3619,VALID,0,VALID,18.9396,VALID,79,VALID,0.0202324,
2001-12-17, 03:36:00,VALID,917.96,VALID,0,VALID,99.3632,VALID,0,VALID,18.9394,VALID,85,VALID,0.0592105,
2001-12-17, 03:37:00,VALID,917.947,VALID,0,VALID,99.3517,VALID,0,VALID,18.9361,VALID,98,VALID,0.063101,
2001-12-17, 03:38:00,VALID,917.931,VALID,0,VALID,99.3517,VALID,0,VALID,18.9424,VALID,158,VALID,0.394141,
2001-12-17, 03:39:00,VALID,917.886,VALID,0,VALID,99.3619,VALID,0,VALID,18.9687,VALID,151,VALID,0.552998,